Location: Chervonnoye
(48.6000°N, 34.4000°E)
Time: 06:33:50
(UTC+00:00)

Nadezhda 1 Rocket - Pass Details

Date: 26 April 2021
Orbit: 940 x 1006 km, 83.0° (Epoch: 13 May)

Event Time Altitude Azimuth Distance (km) Brightness Sun altitude
Exits shadow 22:13:28 46° 254° (WSW) 1,329 4.5 -27.1°
Maximum altitude 22:14:34 50° 285° (WNW) 1,253 4.5 -27.1°
Drops below altitude 10° 22:20:45 10° 1° (N) 2,766 7.3 -26.9°
Sets 22:23:22 0° 6° (N) 3,710 8.3 -26.8°
